Regional Weather Roundup
Issued by NWS

Current Version | Previous Version | Text Only | Print | Product List | Glossary Off
Versions: 1 2 3 4 5 6 7 8 9 10 11 12 13 14 15 16 17 18 19 20 21 22 23 24 25 26 27

000
ASUS44 KBMX 270710
RWRAL

ALABAMA REGIONAL WEATHER ROUNDUP
NATIONAL WEATHER SERVICE BIRMINGHAM AL
200 AM CDT TUE JUN 27 2017

NOTE: "FAIR" INDICATES FEW OR NO CLOUDS BELOW 12,000 FEET
WITH NO SIGNIFICANT WEATHER AND/OR OBSTRUCTIONS TO VISIBILITY.

THE REMARK "TC" DENOTES TEMPERATURE IN DEGREES CELSIUS.

ALZ001>011-014-016>018-020-270800-
NORTH ALABAMA

CITY           SKY/WX    TMP DP  RH WIND       PRES   REMARKS
MUSCLE SHOALS  CLOUDY    65  62  90 CALM      30.09F
HUNTSVILLE     PTCLDY    66  65  96 CALM      30.09F
DECATUR        CLOUDY    63  61  93 CALM      30.10F
HALEYVILLE     NOT AVBL
GADSDEN        PTCLDY    63  62  97 N5        30.09F
$$

ALZ012-013-022-023-030>036-040>044-270800-
WEST CENTRAL ALABAMA

CITY           SKY/WX    TMP DP  RH WIND       PRES   REMARKS
TUSCALOOSA     MOCLDY    69  66  90 CALM      30.06F
$$

ALZ015-024>027-033>036-040>044-270800-
CENTRAL ALABAMA

CITY           SKY/WX    TMP DP  RH WIND       PRES   REMARKS
BIRMINGHAM     PTCLDY    68  62  81 CALM      30.10F
MONTGOMERY     PTCLDY    72  61  68 CALM      30.04F
SHELBY CO ARPT CLOUDY    69  65  86 CALM      30.07F
MAXWELL AFB    NOT AVBL
GREENVILLE     FAIR      69  61  75 N3        30.03F
$$

ALZ019-021-028-029-037-038-045>048-270800-
EAST CENTRAL ALABAMA

CITY           SKY/WX    TMP DP  RH WIND       PRES   REMARKS
ANNISTON       CLOUDY    66  63  90 CALM      30.08F
ALEXANDER CITY MOCLDY    68  61  77 CALM      30.07F
AUBURN         PTCLDY    69  61  75 NE13      30.08S
$$

ALZ051>064-270800-
SOUTHWEST ALABAMA

CITY           SKY/WX    TMP DP  RH WIND       PRES   REMARKS
MOBILE         PTCLDY    72  62  71 CALM      30.03F
BROOKLEY FIELD CLOUDY    74  66  76 NW3       30.03F
EVERGREEN      CLOUDY    68  65  90 CALM      30.03F
$$

ALZ049-050-065>069-270800-
SOUTHEAST ALABAMA

CITY           SKY/WX    TMP DP  RH WIND       PRES   REMARKS
DOTHAN         PTCLDY    73  70  90 CALM      30.05F
OZARK          CLEAR     73  67  81 N3        30.01F
TROY           PTCLDY    69  68  96 CALM      30.04F
EUFAULA        FAIR      67  65  93 CALM      30.02F
$$




USA.gov is the U.S. government's official web portal to all federal, state and local government web resources and services.